Regional Weather Roundup
Issued by NWS

Home | Current Version | Previous Version | Graphics & Text | Print | Product List | Glossary On
Versions: 1 2 3 4 5 6 7 8 9 10 11 12 13 14 15 16 17 18 19 20 21 22 23 24 25 26 27 28 29 30 31 32 33 34 35 36 37 38 39 40 41 42 43 44 45 46 47 48 49 50
000
ASUS43 KMPX 310901
RWRMN
WEATHER ROUNDUP FOR MINNESOTA
NATIONAL WEATHER SERVICE TWIN CITIES/CHANHASSEN MN
400 AM CDT FRI JUL 31 2015


NOTE: "FAIR" INDICATES FEW OR NO CLOUDS BELOW 12,000 FEET WITH NO
SIGNIFICANT WEATHER AND/OR OBSTRUCTIONS TO VISIBILITY. N/A MEANS
CURRENT SKY AND/OR WEATHER CONDITIONS ARE NOT AVAILABLE.

MNZ060>063-068>070-311000-
   Twin Cities Metro

CITY           SKY/WX    TMP DP  RH WIND       PRES   REMARKS
TWIN CITIES    CLEAR     69  56  62 NW12      30.03R
ST PAUL        CLEAR     70  56  61 NW10      30.03R
CRYSTAL        CLEAR     69  57  65 W8        30.02R
BLAINE         CLEAR     66  57  72 W8        30.03R
LAKEVILLE      CLEAR     63  59  88 W7        30.05R
EDEN PRAIRIE   CLEAR     70  58  65 NW9       30.03R
SOUTH ST PAUL  CLEAR     68  59  72 W7        30.03R
LAKE ELMO      FAIR      68  57  68 W7        30.03S
$$
MNZ001>005-007-008-013>017-022>024-027-028-311000-
   Northwest Minnesota

CITY           SKY/WX    TMP DP  RH WIND       PRES   REMARKS
BEMIDJI        CLEAR     59  49  71 W9        30.00S
HALLOCK        CLEAR     55  52  88 W8        30.00R
ROSEAU         CLEAR     57  52  82 W7        29.97R
WARROAD        CLEAR     57  54  88 W8        29.96R
THIEF RVR FALL CLEAR     55  50  82 W8        30.02R
CROOKSTON      CLEAR     55  52  88 W5        30.04R
FOSSTON        CLEAR     57  50  77 W8        30.03S
DETROIT LAKES  CLEAR     63  50  63 NW9       30.07R
MOORHEAD       CLEAR     57  54  88 W7        30.07S
PARK RAPIDS    CLEAR     57  50  77 W8        30.03S
MAHNOMEN       FAIR      55  51  87 W8        30.04R
$$
MNZ006-009>011-018-025>026-311000-
   North Central Minnesota

CITY           SKY/WX    TMP DP  RH WIND       PRES   REMARKS
BAUDETTE       CLEAR     57  52  83 W8        29.93R
FLAG ISLAND    CLEAR     61  55  82 W13       29.92R
INTL FALLS     CLEAR     57  55  93 W7        29.91S
WASKISH        CLEAR     63  55  77 W15       29.96R
BIG FORK       CLEAR     55  52  88 W3        29.96R
LONGVILLE      CLEAR     59  52  77 W3        30.00R
GRAND RAPIDS   CLEAR     63  48  59 W9        29.97S
CRANE LAKE     CLEAR     48  48 100 CALM      29.91S
ORR            CLEAR     57  54  88 W5        29.90S
COOK           CLEAR     57  54  88 W5        29.93R
WALKER         FAIR      59  49  71 W6        30.00S
$$
MNZ012-019>021-037-311000-
   Northeast Minnesota

CITY           SKY/WX    TMP DP  RH WIND       PRES   REMARKS
DULUTH         PTCLDY    64  53  67 W13       29.93S
ELY            CLEAR     55  54  94 W5        29.90S
HIBBING        CLEAR     60  53  77 W6        29.94R
EVELETH        CLEAR     59  54  82 W8        29.94R
DULUTH HARBOR  PTCLDY    68  57  68 W13       29.92S
TWO HARBORS    CLEAR     61  55  82 W3        29.89F
SILVER BAY     CLEAR     59  54  82 CALM      29.87F
GRAND MARAIS     N/A     63  53  70 W8        29.81F
G MARAIS ARPRT CLEAR     54  50  87 W6        29.87S
$$
MNZ029>031-032-039>041-046>048-054>057-064-311000-
   West Central Minnesota

CITY           SKY/WX    TMP DP  RH WIND       PRES   REMARKS
FERGUS FALLS   CLEAR     55  54  94 W5        30.08S
WHEATON        CLEAR     55  54  94 SW6       30.12R
MORRIS         CLEAR     57  55  94 W7        30.09R
ALEXANDRIA     CLEAR     59  55  87 W5        30.09S
ELBOW LAKE     FAIR      56  54  91 W6        30.09R
WADENA         CLEAR     57  50  77 W6        30.05S
GLENWOOD       CLEAR     57  55  94 W6        30.09S
APPLETON       CLEAR     57  54  88 W7        30.10R
BENSON         CLEAR     55  54  94 CALM      30.10R
ORTONVILLE     CLEAR     64  54  68 NW7       30.11R
MADISON        CLEAR     59  54  82 W6        30.11S
WILLMAR        FAIR      57  55  94 W7        30.10R
$$
MNZ033>034-036-042>043-049>051-058-059-311000-
   Central Minnesota

CITY           SKY/WX    TMP DP  RH WIND       PRES   REMARKS
ST CLOUD       CLEAR     63  54  72 W7        30.04S
SAUK CENTRE    FAIR      56  54  91 W5        30.07S
PAYNESVILLE    CLEAR     53  52  99 SW6       30.08R
AITKIN         CLEAR     63  54  72 W5        29.99S
PINE RIVER     CLEAR     61  52  72 W5        30.04S
BRAINERD       CLEAR     63  52  67 W9        30.02S
STAPLES        CLEAR     55  50  82 W8        30.04S
LONG PRAIRIE   FAIR      61  52  72 W6        30.07S
LITTLE FALLS   CLEAR     59  52  77 W3        30.04S
LITCHFIELD     CLEAR     64  61  88 CALM      30.08R
BUFFALO        CLEAR     67  54  63 W7        30.06R
$$
MNZ037-044-045-052-053-311000-
   East Central Minnesota

CITY           SKY/WX    TMP DP  RH WIND       PRES   REMARKS
PRINCETON      CLEAR     63  55  77 W6        30.03S
MORA           CLEAR     63  52  67 W6        30.02S
CAMBRIDGE      CLEAR     66  54  63 W6        30.00S
RUSH CITY      PTCLDY    62  55  76 W5        30.01R
MOOSE LAKE     CLEAR     63  52  67 W6        29.96S
HINCKLEY       FAIR      61  55  82 W6        29.99S
CLOQUET        CLEAR     63  52  67 W7        29.95S
MCGREGOR       CLEAR     63  54  72 W6        29.99S
$$
MNZ071>073-080-081-089-090-097-098-311000-
   Southwest Minnesota

CITY           SKY/WX    TMP DP  RH WIND       PRES   REMARKS
MONTEVIDEO     CLEAR     61  55  82 NW6       30.12R
GRANITE FALLS  CLEAR     58  56  94 W5        30.12R
CANBY          CLEAR     62  55  77 W5        30.13R
MARSHALL       CLEAR     61  52  72 W8        30.12R
REDWOOD FALLS  CLEAR     63  58  83 W8        30.09R
OLIVIA         CLEAR     57  54  88 W3        30.09R
PIPESTONE      CLEAR     61  59  94 CALM      30.14F
WINDOM         CLEAR     61  57  88 CALM      30.12S
WORTHINGTON    PTCLDY    61  55  82 W3        30.14S
JACKSON        PTCLDY    63  59  88 W5        30.13S
TRACY          CLEAR     66  57  72 W7        30.12S
SLAYTON        PTCLDY    62  58  87 CALM      30.14S
$$
MNZ065>067-074>077-082>085-091>093-311000-
   South Central Minnesota

CITY           SKY/WX    TMP DP  RH WIND       PRES   REMARKS
MANKATO        CLEAR     64  57  77 W9        30.07S
NEW ULM        CLEAR     61  59  94 W6        30.08S
ST JAMES       CLEAR     63  61  94 W5        30.10S
FAIRMONT       CLEAR     64  55  72 CALM      30.10S
GLENCOE        CLEAR     64  61  88 W5        30.07R
FARIBAULT      CLEAR     63  61  94 W6        30.06R
OWATONNA       CLEAR     61  57  88 SW6       30.06S
WASECA         CLEAR     59  55  88 SW3       30.09R
ALBERT LEA     CLEAR     64  61  88 W5        30.08S
$$
MNZ078>079-086>088-094>096-311000-
   Southeast Minnesota

CITY           SKY/WX    TMP DP  RH WIND       PRES   REMARKS
ROCHESTER      CLEAR     62  59  90 W9        30.07S
RED WING       CLEAR     61  59  94 CALM      30.01R
STANTON        CLEAR     63  58  84 W5        30.03R
DODGE CENTER   PTCLDY    61  57  88 W7        30.06S
WINONA         CLEAR     63  59  88 CALM      30.02S
AUSTIN         CLEAR     66  61  82 W5        30.07S
PRESTON        CLEAR     63  59  87 W7        30.06F
$$
ABBREVIATIONS USED IN REMARKS
   TC - TEMPERATURES IN CELSIUS
  WCI - WIND CHILL INDEX
   HX - HEAT INDEX
  VSB - VISIBILITY
$$


USA.gov is the U.S. government's official web portal to all federal, state and local government web resources and services.